Regional Weather Roundup
Issued by NWS

Home | Current Version | Previous Version | Text Only | Print | Product List | Glossary Off
Versions: 1 2 3 4 5 6 7 8 9 10 11 12 13 14 15 16 17 18 19 20 21 22 23 24 25 26 27 28 29 30 31 32 33 34 35 36 37 38 39 40 41 42 43 44 45 46 47 48 49 50

000
ASUS43 KOAX 180702
RWRNE

WEATHER ROUNDUP FOR NEBRASKA
NATIONAL WEATHER SERVICE OMAHA NE
200 AM CDT WED OCT 18 2017

NOTES: SATELLITE DATA IS BEING USED TO AUGMENT CLOUD COVER ABOVE
       12000 FEET.
       "FAIR" INDICATES FEW OR NO CLOUDS BELOW 12,000 FEET WITH NO
       SIGNIFICANT WEATHER AND/OR OBSTRUCTIONS TO VISIBILITY.


NEZ001>004-019>022-054>056-180800-
NEBRASKA PANHANDLE

CITY           SKY/WX    TMP DP  RH WIND       PRES   REMARKS
SCOTTSBLUFF    CLOUDY    44  26  49 N5        29.94F
ALLIANCE       CLOUDY    36  26  67 CALM      29.91F
CHADRON        CLOUDY    51  21  30 SW9       29.83F
GORDON         FAIR      50  24  36 W6        29.85F
KIMBALL        CLOUDY    45  25  46 W8        30.01F
SIDNEY         CLOUDY    37  26  64 SW10      29.99S WCI  30
$$

NEZ057>060-069>072-079>082-180800-
SOUTHWEST NEBRASKA

CITY           SKY/WX    TMP DP  RH WIND       PRES   REMARKS
NORTH PLATTE   CLEAR     47  36  65 NW3       29.93F
IMPERIAL       CLEAR     46  29  51 W5        29.96F
LEXINGTON      CLEAR     60  38  44 SW10      29.92F
MCCOOK         CLEAR     51  37  58 SW7       29.95S
OGALLALA       CLEAR     42  30  64 SW5       29.94F
$$

NEZ005>010-023>029-035>040-094-180800-
NORTH CENTRAL NEBRASKA

CITY           SKY/WX    TMP DP  RH WIND       PRES   REMARKS
VALENTINE      CLOUDY    47  30  51 W6        29.82F
AINSWORTH      CLEAR     55  33  43 SW13      29.83F
BROKEN BOW     CLEAR     52  36  54 W3        29.90F
O`NEILL        CLEAR     54  40  60 S6        29.86F
ORD            CLEAR     48  37  65 CALM      29.88F
THEDFORD       CLOUDY    54  31  41 S9        29.89F
$$

NEZ041-046>049-061>064-073>077-083>087-180800-
SOUTH CENTRAL NEBRASKA

CITY           SKY/WX    TMP DP  RH WIND       PRES   REMARKS
GRAND ISLAND   CLEAR     57  45  64 S13       29.92F
AURORA         CLEAR     52  45  76 S7        29.93S
HASTINGS       CLEAR     55  43  63 S8        29.94F
HEBRON         CLEAR     55  46  72 S7        29.96F
HOLDREGE       CLEAR     53  41  64 SW7       29.94S
KEARNEY        CLEAR     53  41  63 SW12      29.93F
YORK           CLEAR     52  46  82 S9        29.94F
$$

NEZ011>018-030>034-042>045-180800-
NORTHEAST NEBRASKA

CITY           SKY/WX    TMP DP  RH WIND       PRES   REMARKS
NORFOLK        CLEAR     50  44  80 CALM      29.89F
ALBION         CLEAR     51  44  76 SE5       29.91S
BLAIR          CLEAR     55  47  74 S12       29.94F
COLUMBUS       CLEAR     52  45  77 S7        29.93F
FREMONT        CLEAR     57  46  68 S10       29.94S
TEKAMAH        CLEAR     45  43  93 S5        29.93F
WAYNE          CLEAR     49  47  92 S7        29.90F
$$

NEZ050>053-065>068-078-088>093-180800-
SOUTHEAST NEBRASKA

CITY           SKY/WX    TMP DP  RH WIND       PRES   REMARKS
LINCOLN        CLEAR     51  46  83 S8        29.97F
OMAHA EPPLEY   CLEAR     52  45  77 SE12      29.96F
BEATRICE       CLEAR     55  46  71 S9        29.99S
FALLS CITY     CLEAR     54  46  74 S10       30.01F
NEBRASKA CITY  CLEAR     53  48  84 S9        29.99F
PLATTSMOUTH    PTCLDY    53  47  82 S10       29.97F
$$

NEZ044-045-051>053-067-180800-
OMAHA AREA

CITY           SKY/WX    TMP DP  RH WIND       PRES   REMARKS
OMAHA EPPLEY   CLEAR     52  45  77 SE12      29.96F
BLAIR          CLEAR     55  47  74 S12       29.94F
FREMONT        CLEAR     57  46  68 S10       29.94S
MILLARD        CLEAR     52  47  84 CALM      29.96F
OFFUTT AFB     CLEAR     45  43  92 E5        29.96F
PLATTSMOUTH    PTCLDY    53  47  82 S10       29.97F
WAHOO          FAIR      48  44  85 SE5       29.95S
$$




USA.gov is the U.S. government's official web portal to all federal, state and local government web resources and services.